Regional Weather Roundup
Issued by NWS Kansas City/Pleasant Hill, MO

Home | Current Version | Previous Version | Text Only | Print | Product List | Glossary On
Versions: 1 2 3 4 5 6 7 8 9 10 11 12 13 14 15 16 17 18 19 20 21 22 23 24 25 26 27 28 29 30 31 32 33 34 35 36 37 38 39 40 41 42 43 44 45 46 47 48 49 50
645
ASUS43 KEAX 301910
RWREAX

WEATHER ROUNDUP FOR EASTERN KANSAS AND NORTHWEST MISSOURI
NATIONAL WEATHER SERVICE KANSAS CITY/PLEASANT HILL MO
200 PM CDT SAT JUL 30 2016

KSZ040-057-103>105-MOZ028-029-037-043-302000-
...KANSAS CITY METROPOLITAN AREA...

CITY           SKY/WX    TMP DP  RH WIND       PRES   REMARKS
K.C. INTL      MOSUNNY   83  62  49 CALM      30.02F
K.C. DOWNTOWN  SUNNY     86  63  45 VRB3      30.00F
LEES SUMMIT    MOSUNNY   82  65  56 E7        30.02F
OLATHE - IXD   PTSUNNY   84  67  56 S8        30.02F
OLATHE - OJC   MOSUNNY   83  64  52 CALM      30.01F
LAWRENCE       SUNNY     85  69  58 E6        30.00F

$$

MOZ001>008-011>017-020>025-030>033-038>040-044>046-053-054-302000-
...NORTHERN AND CENTRAL MISSOURI...

CITY           SKY/WX    TMP DP  RH WIND       PRES   REMARKS
ST. JOSEPH     CLOUDY    82  63  52 N5        30.02F
MOSBY          CLEAR     81  63  54 CALM      30.01F
WHITEMAN AFB   MOSUNNY   83  67  59 VRB6      30.01F
CLINTON        PTSUNNY   84  66  54 CALM      30.02F
SEDALIA        SUNNY     84  68  58 NW7       30.03F
WARSAW         NOT AVBL
CHILLICOTHE      N/A     82  65  56 VRB3      30.03S
KIRKSVILLE     CLOUDY    78  63  59 N3        30.03F

$$

MOZ041-047>049-056>058-063>065-088>090-097-302000-
...EASTERN AND SOUTHERN MISSOURI...

CITY           SKY/WX    TMP DP  RH WIND       PRES   REMARKS
ST. LOUIS INTL PTSUNNY   85  65  51 W10       30.00S
SPIRIT OF STL  MOSUNNY   86  64  47 W8        29.98F
COLUMBIA       MOSUNNY   80  65  59 W9        30.02F
JEFFERSON CITY SUNNY     82  65  56 NW8       29.99F
ROLLA          MOSUNNY   84  67  56 W12       30.01F
OSAGE BEACH    PTSUNNY   84  68  58 VRB3      30.02F
SPRINGFIELD    MOSUNNY   86  65  49 W3        30.02F
BRANSON        PTSUNNY   86  66  51 NW6       30.05F
JOPLIN         CLOUDY    85  71  63 NW7       30.03S HX  90
WEST PLAINS    MOSUNNY   85  66  53 SW6       30.05F

$$

IAZ060-094-KSZ022-034>040-054-083-096-NEZ052-066-093-302000-
...KANSAS...SOUTHEAST NEBRASKA AND IOWA...

CITY           SKY/WX    TMP DP  RH WIND       PRES   REMARKS
TOPEKA         MOSUNNY   84  67  56 CALM      30.00F
MANHATTAN      MOSUNNY   86  71  60 NE8       29.98F HX  91
EMPORIA        MOSUNNY   85  70  60 SE8       30.00F
CHANUTE        LGT RAIN  86  72  62 S6        29.99F HX  92
WICHITA        MOSUNNY   85  68  56 SE12      29.97F
OMAHA          PTSUNNY   77  64  64 SE8       30.00F
LINCOLN        CLOUDY    77  66  68 SE10      30.02S
FALLS CITY     LGT RAIN  76  65  68 SE3       30.02S
LAMONI         CLOUDY    77  65  66 VRB5      30.02F
DES MOINES     PTSUNNY   78  64  61 NE3       30.00F

$$





USA.gov is the U.S. government's official web portal to all federal, state and local government web resources and services.